Regional Weather Roundup
Issued by NWS

Home | Current Version | Previous Version | Graphics & Text | Print | Product List | Glossary On
Versions: 1 2 3 4 5 6 7 8 9 10 11 12 13 14 15 16 17 18 19 20 21 22 23 24 25 26 27 28 29 30 31 32 33 34 35 36 37 38 39 40 41 42 43 44 45 46 47 48 49 50
497
ASUS43 KLMK 042102
RWRKY
KENTUCKY REGIONAL WEATHER ROUNDUP
NATIONAL WEATHER SERVICE LOUISVILLE KY
400 PM EST SUN DEC 04 2016

NOTE "FAIR" INDICATES FEW OR NO CLOUDS BELOW 12,000 FEET
WITH NO SIGNIFICANT WEATHER AND/OR OBSTRUCTIONS TO VISIBILITY.

KYZ001>023-026-027-061>063-070>075-042200-
WESTERN AND SOUTH CENTRAL KENTUCKY

CITY           SKY/WX    TMP DP  RH WIND       PRES   REMARKS
PADUCAH        LGT RAIN  46  43  89 W9        29.95R
HENDERSON      CLOUDY    45  39  81 SW7       29.94R
OWENSBORO      LGT RAIN  45  44  97 SW8       29.95R FOG
HOPKINSVILLE   CLOUDY    46  46 100 W6        29.94R FOG
BOWLING GREEN  CLOUDY    48  46  93 SW5       29.93S FOG
GLASGOW        NOT AVBL
$$

KYZ024-025-028>034-038-045-046-053-042200-
NORTH CENTRAL KENTUCKY

CITY           SKY/WX    TMP DP  RH WIND       PRES   REMARKS
LOUISVILLE/SDF LGT RAIN  46  44  93 S9        29.91F FOG
LOUISVILLE/LOU LGT RAIN  46  44  93 S3        29.92S FOG
FORT KNOX      DRIZZLE   45  45  99 S7        29.89S FOG
$$

KYZ035>037-039>044-047>052-055>060-089>105-042200-
NORTHEAST KENTUCKY

CITY           SKY/WX    TMP DP  RH WIND       PRES   REMARKS
LEXINGTON      CLOUDY    44  40  85 SE8       29.91F
COVINGTON      LGT RAIN  42  35  76 SE10      29.91F
FRANKFORT      CLOUDY    45  42  89 VRB3      29.91F FOG
$$

KYZ054-064>069-076>088-106>120-042200-
SOUTHEAST KENTUCKY

CITY           SKY/WX    TMP DP  RH WIND       PRES   REMARKS
JACKSON        LGT RAIN  41  39  93 CALM      29.94F
LONDON         LGT RAIN  45  42  89 S3        29.94S
SOMERSET       DRIZZLE   43  43 100 SE5       29.95F
MIDDLESBORO    DRIZZLE   46  44  94 CALM      29.98S
MONTICELLO     LGT RAIN  47  44  90 E6        29.95S
$$





USA.gov is the U.S. government's official web portal to all federal, state and local government web resources and services.